Hinckley, MN

8:02 AM CST on December 08, 2019 (GMT -0600)
Hinckley

Weather History for K04W - October, 2019

Change the Weather History Date:

Sunday, October 27, 2019

  Actual Average (KJMR) Record (KJMR)
Temperature  
Mean Temperature 36 °F -  
Max Temperature 42 °F 54 °F 74 °F (1983)
Min Temperature 30 °F 28 °F 4 °F (1976)
Degree Days  
Heating Degree Days 29    
Moisture  
Dew Point 31 °F    
Average Humidity 79    
Maximum Humidity 100    
Minimum Humidity 65    
Precipitation  
Precipitation 0.00 in - - ()
Sea Level Pressure  
Sea Level Pressure 29.87 in    
Wind  
Wind Speed 4 mph (WNW)    
Max Wind Speed 14 mph    
Max Gust Speed 20 mph    
Visibility 10 miles    
Events      
Averages and records for this station are not official NWS values.
T = Trace of Precipitation, MM = Missing Value Source: NWS Daily Summary

Daily Weather History Graph

Daily Weather History Graph

Search for Another Location

Airport or City:

Astronomy

Oct. 27, 2019 Rise Set
Actual Time 7:44 AM CDT 6:05 PM CDT
Civil Twilight 7:13 AM CDT 6:36 PM CDT
Nautical Twilight 6:38 AM CDT 7:11 PM CDT
Astronomical Twilight 6:04 AM CDT 7:45 PM CDT
Moon 6:48 AM CDT (10/27) 6:18 PM CDT (10/27)
Length of Visible Light 11h 22m
Length of Day
10h 20m
Waning Crescent, 0% of the Moon is Illuminated
Oct 27
Waning Crescent
Oct 27
New
Nov 4
First Quarter
Nov 12
Full
Nov 19
Last Quarter

Hourly Weather History & Observations

Time (CDT) Temp. Windchill Dew Point Humidity Pressure Visibility Wind Dir Wind Speed Gust Speed Precip Events Conditions
12:15 AM 32.0 °F - 30.2 °F 93% 29.72 in 10.0 mi Calm Calm - N/A   Clear
12:20 AM 32.0 °F - 30.2 °F 93% 29.73 in 10.0 mi Calm Calm - N/A   Clear
12:37 AM 32.0 °F - 30.2 °F 93% 29.73 in 10.0 mi Calm Calm - N/A   Clear
12:56 AM 32.0 °F - 30.2 °F 93% 29.72 in 10.0 mi Calm Calm - N/A   Clear
1:15 AM 32.0 °F - 30.2 °F 93% 29.71 in 10.0 mi Calm Calm - N/A   Clear
1:16 AM 32.0 °F - 30.2 °F 93% 29.71 in 10.0 mi Calm Calm - N/A   Clear
1:35 AM 32.0 °F - 30.2 °F 93% 29.69 in 10.0 mi Calm Calm - N/A   Clear
1:58 AM 30.2 °F - 30.2 °F 100% 29.69 in 10.0 mi Calm Calm - N/A   Clear
2:17 AM 30.2 °F - 28.4 °F 93% 29.68 in 10.0 mi Calm Calm - N/A   Clear
2:36 AM 30.2 °F - 28.4 °F 93% 29.69 in 10.0 mi Calm Calm - N/A   Clear
2:55 AM 30.2 °F - 28.4 °F 93% 29.69 in 10.0 mi Calm Calm - N/A   Clear
2:56 AM 30.2 °F - 28.4 °F 93% 29.69 in 10.0 mi Calm Calm - N/A   Clear
3:15 AM 30.2 °F - 28.4 °F 93% 29.71 in 10.0 mi Calm Calm - N/A   Clear
3:19 AM 30.2 °F - 28.4 °F 93% 29.71 in 10.0 mi Calm Calm - N/A   Clear
3:37 AM 30.2 °F 26.7 °F 28.4 °F 93% 29.72 in 10.0 mi West 3.5 mph - N/A   Clear
3:56 AM 30.2 °F - 28.4 °F 93% 29.72 in 10.0 mi Calm Calm - N/A   Clear
4:15 AM 30.2 °F 26.7 °F 30.2 °F 100% 29.74 in 10.0 mi West 3.5 mph - N/A   Clear
4:16 AM 30.2 °F 26.7 °F 30.2 °F 100% 29.74 in 10.0 mi West 3.5 mph - N/A   Clear
4:35 AM 30.2 °F - 28.4 °F 93% 29.73 in 10.0 mi Calm Calm - N/A   Clear
4:36 AM 30.2 °F - 28.4 °F 93% 29.74 in 10.0 mi Calm Calm - N/A   Clear
4:58 AM 30.2 °F - 28.4 °F 93% 29.73 in 10.0 mi Calm Calm - N/A   Clear
5:17 AM 30.2 °F 25.4 °F 28.4 °F 93% 29.76 in 10.0 mi WNW 4.6 mph - N/A   Clear
5:36 AM 33.8 °F 30.8 °F 32.0 °F 93% 29.78 in 10.0 mi WNW 3.5 mph - N/A   Scattered Clouds
5:55 AM 35.6 °F 31.7 °F 33.8 °F 93% 29.79 in 10.0 mi NW 4.6 mph - N/A   Overcast
5:56 AM 35.6 °F 30.7 °F 33.8 °F 93% 29.79 in 10.0 mi NW 5.8 mph - N/A   Overcast
6:15 AM 37.4 °F 31.4 °F 33.8 °F 87% 29.78 in 10.0 mi NW 8.1 mph - N/A   Overcast
6:19 AM 37.4 °F 31.4 °F 33.8 °F 87% 29.78 in 10.0 mi NNW 8.1 mph - N/A   Overcast
6:38 AM 39.2 °F 34.2 °F 35.6 °F 87% 29.79 in 10.0 mi WNW 6.9 mph - N/A   Overcast
6:56 AM 39.2 °F 34.2 °F 35.6 °F 87% 29.79 in 10.0 mi NW 6.9 mph - N/A   Overcast
7:15 AM 41.0 °F 37.1 °F 35.6 °F 81% 29.78 in 10.0 mi NNW 5.8 mph - N/A   Overcast
7:16 AM 41.0 °F 38.0 °F 35.6 °F 81% 29.78 in 10.0 mi NNW 4.6 mph - N/A   Overcast
7:35 AM 41.0 °F 36.4 °F 35.6 °F 81% 29.79 in 10.0 mi NW 6.9 mph - N/A   Overcast
7:39 AM 41.0 °F 34.7 °F 35.6 °F 81% 29.80 in 10.0 mi NW 10.4 mph - N/A   Overcast
7:58 AM 41.0 °F 35.2 °F 35.6 °F 81% 29.79 in 10.0 mi NNW 9.2 mph - N/A   Overcast
8:15 AM 41.0 °F 33.5 °F 33.8 °F 76% 29.81 in 10.0 mi NW 13.8 mph 17.3 mph N/A   Overcast
8:35 AM 41.0 °F 33.9 °F 33.8 °F 76% 29.82 in 10.0 mi NNW 12.7 mph 19.6 mph N/A   Overcast
8:55 AM 41.0 °F 35.2 °F 33.8 °F 76% 29.83 in 10.0 mi NNW 9.2 mph 17.3 mph N/A   Overcast
8:56 AM 41.0 °F 35.2 °F 33.8 °F 76% 29.83 in 10.0 mi NNW 9.2 mph 17.3 mph N/A   Overcast
9:18 AM 41.0 °F 33.9 °F 33.8 °F 76% 29.85 in 10.0 mi NW 12.7 mph - N/A   Overcast
9:36 AM 41.0 °F 34.3 °F 33.8 °F 76% 29.87 in 10.0 mi NW 11.5 mph 16.1 mph N/A   Overcast
9:55 AM 41.0 °F 34.7 °F 33.8 °F 76% 29.88 in 10.0 mi NW 10.4 mph 16.1 mph N/A   Overcast
10:15 AM 41.0 °F 33.9 °F 33.8 °F 76% 29.89 in 10.0 mi NW 12.7 mph 18.4 mph N/A   Overcast
10:35 AM 42.8 °F 36.6 °F 33.8 °F 70% 29.87 in 10.0 mi NNW 11.5 mph - N/A   Overcast
10:39 AM 42.8 °F 37.0 °F 33.8 °F 70% 29.88 in 10.0 mi NW 10.4 mph - N/A   Overcast
10:58 AM 41.0 °F 34.3 °F 33.8 °F 76% 29.87 in 10.0 mi NW 11.5 mph - N/A   Overcast
11:16 AM 41.0 °F 35.8 °F 33.8 °F 76% 29.88 in 10.0 mi NW 8.1 mph - N/A   Overcast
11:35 AM 41.0 °F 34.7 °F 33.8 °F 76% 29.90 in 10.0 mi NNW 10.4 mph 17.3 mph N/A   Overcast
11:55 AM 42.8 °F 36.6 °F 33.8 °F 70% 29.91 in 10.0 mi NW 11.5 mph 17.3 mph N/A   Overcast
11:56 AM 42.8 °F 36.6 °F 33.8 °F 70% 29.91 in 10.0 mi NW 11.5 mph 17.3 mph N/A   Overcast
12:18 PM 41.0 °F 35.8 °F 33.8 °F 76% 29.91 in 10.0 mi NW 8.1 mph 17.3 mph N/A   Overcast
12:36 PM 42.8 °F 37.0 °F 33.8 °F 70% 29.91 in 10.0 mi NW 10.4 mph 16.1 mph N/A   Overcast
12:56 PM 42.8 °F 37.5 °F 33.8 °F 70% 29.91 in 10.0 mi NW 9.2 mph - N/A   Overcast
1:15 PM 41.0 °F 37.1 °F 32.0 °F 70% 29.91 in 10.0 mi WNW 5.8 mph - N/A   Overcast
1:16 PM 41.0 °F 35.8 °F 32.0 °F 70% 29.91 in 10.0 mi West 8.1 mph - N/A   Overcast
1:35 PM 41.0 °F 34.7 °F 32.0 °F 70% 29.92 in 10.0 mi WNW 10.4 mph - N/A   Overcast
1:40 PM 41.0 °F 35.2 °F 32.0 °F 70% 29.92 in 10.0 mi WNW 9.2 mph - N/A   Overcast
1:57 PM 41.0 °F 34.3 °F 32.0 °F 70% 29.92 in 10.0 mi West 11.5 mph 16.1 mph N/A   Overcast
2:16 PM 41.0 °F 35.8 °F 32.0 °F 70% 29.93 in 10.0 mi WNW 8.1 mph - N/A   Overcast
2:35 PM 41.0 °F 34.7 °F 32.0 °F 70% 29.93 in 10.0 mi WNW 10.4 mph - N/A   Overcast
2:36 PM 41.0 °F 34.7 °F 32.0 °F 70% 29.93 in 10.0 mi NW 10.4 mph - N/A   Overcast
2:55 PM 41.0 °F 35.2 °F 33.8 °F 76% 29.93 in 10.0 mi WNW 9.2 mph - N/A   Light Drizzle
3:18 PM 41.0 °F 35.2 °F 32.0 °F 70% 29.94 in 10.0 mi NW 9.2 mph - N/A   Overcast
3:36 PM 41.0 °F 36.4 °F 32.0 °F 70% 29.94 in 10.0 mi NNW 6.9 mph - N/A   Overcast
3:56 PM 41.0 °F 38.0 °F 32.0 °F 70% 29.95 in 10.0 mi WNW 4.6 mph - N/A   Overcast
4:15 PM 41.0 °F 36.4 °F 32.0 °F 70% 29.96 in 10.0 mi WNW 6.9 mph - N/A   Overcast
4:16 PM 41.0 °F 36.4 °F 32.0 °F 70% 29.96 in 10.0 mi WNW 6.9 mph - N/A   Overcast
4:35 PM 41.0 °F 37.1 °F 30.2 °F 65% 29.96 in 10.0 mi WNW 5.8 mph - N/A   Overcast
4:39 PM 41.0 °F 35.2 °F 30.2 °F 65% 29.95 in 10.0 mi NW 9.2 mph - N/A   Overcast
4:56 PM 41.0 °F 38.0 °F 30.2 °F 65% 29.95 in 10.0 mi WNW 4.6 mph - N/A   Overcast
5:16 PM 41.0 °F 38.0 °F 30.2 °F 65% 29.95 in 10.0 mi WNW 4.6 mph - N/A   Overcast
5:35 PM 41.0 °F 37.1 °F 30.2 °F 65% 29.96 in 10.0 mi WNW 5.8 mph - N/A   Overcast
5:36 PM 41.0 °F 36.4 °F 30.2 °F 65% 29.96 in 10.0 mi WNW 6.9 mph - N/A   Overcast
5:58 PM 41.0 °F 36.4 °F 30.2 °F 65% 29.96 in 10.0 mi WNW 6.9 mph - N/A   Overcast
6:16 PM 41.0 °F - 32.0 °F 70% 29.96 in 10.0 mi Calm Calm - N/A   Overcast
6:35 PM 41.0 °F 39.0 °F 30.2 °F 65% 29.96 in 10.0 mi West 3.5 mph - N/A   Overcast
6:36 PM 41.0 °F 39.0 °F 30.2 °F 65% 29.96 in 10.0 mi West 3.5 mph - N/A   Overcast
6:55 PM 39.2 °F 35.9 °F 30.2 °F 70% 29.96 in 10.0 mi West 4.6 mph - N/A   Overcast
6:56 PM 39.2 °F 37.0 °F 30.2 °F 70% 29.96 in 10.0 mi West 3.5 mph - N/A   Overcast
7:18 PM 39.2 °F 35.9 °F 30.2 °F 70% 29.97 in 10.0 mi West 4.6 mph - N/A   Overcast
7:37 PM 37.4 °F 32.8 °F 32.0 °F 81% 29.97 in 10.0 mi West 5.8 mph - N/A   Mostly Cloudy
7:55 PM 37.4 °F 34.9 °F 30.2 °F 75% 29.97 in 10.0 mi West 3.5 mph - N/A   Overcast
7:56 PM 37.4 °F 34.9 °F 30.2 °F 75% 29.97 in 10.0 mi West 3.5 mph - N/A   Overcast
8:15 PM 37.4 °F 30.8 °F 30.2 °F 75% 29.97 in 10.0 mi West 9.2 mph - N/A   Overcast
8:38 PM 37.4 °F 30.3 °F 32.0 °F 81% 29.99 in 10.0 mi West 10.4 mph 18.4 mph N/A   Overcast
8:56 PM 37.4 °F 29.8 °F 32.0 °F 81% 29.99 in 10.0 mi WNW 11.5 mph 16.1 mph N/A   Overcast
9:16 PM 35.6 °F 29.2 °F 28.4 °F 75% 29.99 in 10.0 mi NW 8.1 mph - N/A   Overcast
9:35 PM 35.6 °F 29.2 °F 28.4 °F 75% 29.99 in 10.0 mi WNW 8.1 mph - N/A   Overcast
9:36 PM 35.6 °F 29.2 °F 28.4 °F 75% 29.99 in 10.0 mi WNW 8.1 mph - N/A   Overcast
9:59 PM 35.6 °F 29.9 °F 28.4 °F 75% 30.01 in 10.0 mi West 6.9 mph - N/A   Mostly Cloudy
10:16 PM 35.6 °F 29.9 °F 28.4 °F 75% 30.02 in 10.0 mi West 6.9 mph - N/A   Overcast
10:35 PM 35.6 °F 29.9 °F 28.4 °F 75% 30.02 in 10.0 mi WNW 6.9 mph - N/A   Overcast
10:36 PM 35.6 °F 29.9 °F 28.4 °F 75% 30.02 in 10.0 mi West 6.9 mph - N/A   Overcast
10:55 PM 35.6 °F 30.7 °F 28.4 °F 75% 30.02 in 10.0 mi WNW 5.8 mph - N/A   Overcast
10:56 PM 35.6 °F 31.7 °F 28.4 °F 75% 30.02 in 10.0 mi WNW 4.6 mph - N/A   Overcast
11:15 PM 35.6 °F 32.8 °F 28.4 °F 75% 30.03 in 10.0 mi West 3.5 mph - N/A   Overcast
11:20 PM 35.6 °F 32.8 °F 28.4 °F 75% 30.03 in 10.0 mi West 3.5 mph - N/A   Overcast
11:37 PM 35.6 °F 31.7 °F 26.6 °F 70% 30.03 in 10.0 mi WNW 4.6 mph - N/A   Overcast
11:56 PM 35.6 °F 31.7 °F 26.6 °F 70% 30.03 in 10.0 mi West 4.6 mph - N/A   Overcast